This demonstration page uses our WeatherBlox Daily Observations layout. Learn more.

40.92945, -100.16068

Hourly Observations for January 27, 2018

Temp ( °F °C ) Dew Point ( °F °C ) Humidity (%) Winds ( mph kmh ) Pressure ( in mb ) Visibility ( mi km ) Precip ( " mm )
12:15 am 00:15 Clear 30 -1.3 23 -5.2 75 75 W 9 15 30.3 1026 10 16.0934 0 0
12:35 am 00:35 Clear 28 -2.2 22 -5.5 78 78 WNW 7 11 30.3 1026 10 16.0934 0 0
12:55 am 00:55 Clear 28 -2.3 22 -5.5 79 79 W 9 15 30.3 1026 10 16.0934 0 0
1:15 am 01:15 Clear 27 -2.9 21 -6 79 79 W 8 13 30.3 1026 10 16.0934 0 0
1:35 am 01:35 Clear 28 -2.5 22 -5.6 80 80 W 9 15 30.3 1026 10 16.0934 0 0
1:55 am 01:55 Clear 26 -3.3 21 -6 82 82 WNW 7 11 30.3 1026 10 16.0934 0 0
2:15 am 02:15 Clear 24 -4.2 20 -6.5 84 84 WNW 7 11 30.33 1027 10 16.0934 0 0
2:35 am 02:35 Clear 24 -4.4 20 -6.6 85 85 WNW 7 11 30.33 1027 10 16.0934 0 0
2:55 am 02:55 Clear 24 -4.5 20 -6.7 85 85 WNW 6 9 30.33 1027 10 16.0934 0 0
3:15 am 03:15 Clear 24 -4.7 19 -7 84 84 WNW 8 13 30.33 1027 10 16.0934 0 0
3:35 am 03:35 Clear 24 -4.6 19 -7 84 84 WNW 7 11 30.36 1028 10 16.0934 0 0
3:55 am 03:55 Clear 23 -4.9 19 -7.4 83 83 NW 7 11 30.36 1028 10 16.0934 0 0
4:15 am 04:15 Clear 22 -5.6 18 -7.6 86 86 WNW 5 7 30.33 1027 10 16.0934 0 0
4:35 am 04:35 Clear 22 -5.7 18 -7.6 87 87 WNW 6 9 30.33 1027 10 16.0934 0 0
4:55 am 04:55 Clear 22 -5.8 18 -7.8 86 86 W 6 9 30.36 1028 10 16.0934 0 0
5:15 am 05:15 Clear 22 -5.6 18 -8 83 83 NW 7 11 30.36 1028 10 16.0934 0 0
5:35 am 05:35 Clear 21 -6 17 -8.3 84 84 WNW 9 15 30.36 1028 10 16.0934 0 0
5:55 am 05:55 Clear 22 -5.8 17 -8.4 82 82 WNW 7 11 30.36 1028 10 16.0934 0 0
6:15 am 06:15 Clear 22 -5.8 17 -8.2 83 83 WNW 8 13 30.36 1028 10 16.0934 0 0
6:35 am 06:35 Clear 21 -6 17 -8.5 83 83 WNW 9 15 30.36 1028 10 16.0934 0 0
6:55 am 06:55 Clear 21 -6.3 17 -8.6 84 84 WNW 8 13 30.36 1028 10 16.0934 0 0
7:15 am 07:15 Clear 20 -6.5 16 -8.8 84 84 NW 7 11 30.39 1029 10 16.0934 0 0
7:35 am 07:35 Clear 20 -6.4 16 -8.7 84 84 NW 7 11 30.42 1030 10 16.0934 0 0
7:55 am 07:55 Sunny 21 -6.3 16 -9.1 81 81 WNW 9 15 30.42 1030 10 16.0934 0 0
8:15 am 08:15 Sunny 20 -6.8 15 -9.3 83 83 WNW 7 11 30.42 1030 10 16.0934 0 0
8:35 am 08:35 Sunny 21 -6.1 16 -9 80 80 WNW 7 11 30.42 1030 10 16.0934 0 0
8:55 am 08:55 Sunny 22 -5.5 17 -8.5 80 80 WNW 6 9 30.42 1030 10 16.0934 0 0
9:15 am 09:15 Sunny 24 -4.4 18 -7.9 77 77 WNW 9 15 30.42 1030 10 16.0934 0 0
9:35 am 09:35 Sunny 26 -3.6 19 -7.4 75 75 WNW 9 15 30.42 1030 10 16.0934 0 0
9:55 am 09:55 Sunny 28 -2.4 20 -6.6 73 73 WNW 9 15 30.39 1029 10 16.0934 0 0
10:15 am 10:15 Sunny 30 -1 21 -6.1 69 69 WNW 15 24 30.39 1029 10 16.0934 0 0
10:35 am 10:35 Sunny 32 -0.2 22 -5.6 67 67 WNW 20 31 30.42 1030 10 16.0934 0 0
10:55 am 10:55 Sunny 32 0.1 22 -5.3 67 67 NW 16 26 30.42 1030 10 16.0934 0 0
11:15 am 11:15 Sunny 33 0.5 23 -5.1 66 66 WNW 17 28 30.39 1029 10 16.0934 0 0
11:35 am 11:35 Sunny 34 1.2 23 -5 64 64 WNW 14 22 30.39 1029 10 16.0934 0 0
11:55 am 11:55 Sunny 36 2.1 24 -4.4 62 62 WNW 12 19 30.39 1029 10 16.0934 0 0
12:15 pm 12:15 Sunny 37 2.7 24 -4.2 61 61 WNW 15 24 30.36 1028 10 16.0934 0 0
12:35 pm 12:35 Sunny 37 3 25 -4.1 60 60 NW 15 24 30.33 1027 10 16.0934 0 0
12:55 pm 12:55 Sunny 38 3.3 25 -4 59 59 WNW 14 22 30.33 1027 10 16.0934 0 0
1:15 pm 13:15 Sunny 38 3.6 25 -3.9 58 58 WNW 13 20 30.33 1027 10 16.0934 0 0
1:35 pm 13:35 Sunny 39 4 25 -3.7 58 58 WNW 16 26 30.33 1027 10 16.0934 0 0
1:55 pm 13:55 Sunny 40 4.5 25 -3.9 55 55 NW 12 19 30.3 1026 10 16.0934 0 0
2:15 pm 14:15 Sunny 41 4.8 26 -3.6 55 55 NW 9 15 30.33 1027 10 16.0934 0 0
2:35 pm 14:35 Sunny 41 5.2 26 -3.3 55 55 WNW 9 15 30.3 1026 10 16.0934 0 0
2:55 pm 14:55 Sunny 42 5.4 26 -3.3 54 54 NW 7 11 30.3 1026 10 16.0934 0 0
3:15 pm 15:15 Sunny 42 5.7 26 -3.5 52 52 NNW 5 7 30.27 1025 10 16.0934 0 0
3:35 pm 15:35 Sunny 42 5.7 24 -4.2 49 49 NNW 6 9 30.27 1025 10 16.0934 0 0
3:55 pm 15:55 Sunny 42 5.7 24 -4.6 48 48 NW 6 9 30.27 1025 10 16.0934 0 0
4:15 pm 16:15 Sunny 42 5.5 25 -4.1 50 50 Calm 30.3 1026 10 16.0934 0 0
4:35 pm 16:35 Sunny 41 5 27 -2.9 57 57 Calm 30.3 1026 10 16.0934 0 0
4:55 pm 16:55 Sunny 40 4.3 27 -2.7 61 61 Calm 30.3 1026 10 16.0934 0 0
5:15 pm 17:15 Sunny 39 3.9 24 -4.4 55 55 Calm 30.3 1026 10 16.0934 0 0
5:35 pm 17:35 Sunny 39 4 25 -4.1 56 56 Calm 30.33 1027 10 16.0934 0 0
5:55 pm 17:55 Clear 37 2.6 26 -3.2 66 66 SW 3 6 30.36 1028 10 16.0934 0 0
6:15 pm 18:15 Clear 35 1.9 26 -3.2 69 69 Calm 30.36 1028 10 16.0934 0 0
6:35 pm 18:35 Clear 36 2.2 25 -3.7 65 65 Calm 30.36 1028 10 16.0934 0 0
6:55 pm 18:55 Clear 35 1.6 24 -4.3 65 65 S 3 6 30.36 1028 10 16.0934 0 0
7:15 pm 19:15 Clear 35 1.5 24 -4.6 64 64 Calm 30.36 1028 10 16.0934 0 0
7:35 pm 19:35 Clear 34 1.1 24 -4.2 68 68 SW 5 7 30.36 1028 10 16.0934 0 0
7:55 pm 19:55 Clear 33 0.7 25 -4 71 71 WSW 3 6 30.36 1028 10 16.0934 0 0
8:15 pm 20:15 Clear 33 0.3 25 -4.1 73 73 Calm 30.36 1028 10 16.0934 0 0
8:35 pm 20:35 Clear 34 0.9 25 -4.1 70 70 Calm 30.36 1028 10 16.0934 0 0
8:55 pm 20:55 Clear 33 0.3 25 -4.1 73 73 Calm 30.36 1028 10 16.0934 0 0
9:15 pm 21:15 Clear 32 0 24 -4.3 73 73 Calm 30.36 1028 10 16.0934 0 0
9:35 pm 21:35 Clear 32 0.1 24 -4.6 71 71 SW 7 11 30.36 1028 10 16.0934 0 0
9:55 pm 21:55 Clear 31 -0.6 23 -5 72 72 SW 3 6 30.39 1029 10 16.0934 0 0
10:15 pm 22:15 Clear 32 -0.1 23 -4.8 71 71 Calm 30.39 1029 10 16.0934 0 0
10:35 pm 22:35 Clear 28 -2.3 23 -4.9 83 83 N 3 6 30.39 1029 10 16.0934 0 0
10:55 pm 22:55 Clear 28 -2.5 23 -5.2 82 82 N 3 6 30.39 1029 10 16.0934 0 0
11:15 pm 23:15 Clear 28 -2.5 23 -5.1 83 83 N 6 9 30.39 1029 10 16.0934 0 0
11:35 pm 23:35 Clear 26 -3.1 22 -5.3 85 85 NNW 5 7 30.42 1030 10 16.0934 0 0
11:55 pm 23:55 Clear 26 -3.2 22 -5.5 84 84 NNW 3 6 30.42 1030 10 16.0934 0 0

Powered by AerisWeather